Location: Arboucave
(43.6130°N, 0.4343°W)
Time: 04:37:54
(UTC+00:00)

DELTA 2 R/B (1) - Pass Details

Date: 17 November 2025
Orbit: 786 x 800 km, 39.6° (Epoch: 04 December)

Event Time Altitude Azimuth Distance (km) Brightness Sun altitude
Rises 19:01:28 0° 235° (SW) 3,273 7.6 -26.5°
Reaches altitude 10° 19:04:05 10° 228° (SW) 2,343 6.6 -26.9°
Enters shadow 19:08:21 37° 182° (S) 1,211 4.5 -27.7°
